contact:dominique.lefevre@mio.osupytheas.fr, maurice.libes@osupytheas.fr, didier.mallarino@osupytheas.fr
Project:EMSO http://www.emso-fr.org/EMSO-France
Depth: 2436.0 m
Title:EMSO Ligure Ouest : Data MII capteur AQUADOPP
Date,Latitude,Longitude,X_East,Y_North,Z_Up,Amplitude_X,Amplitude_Y,Amplitude_Z,Batterie,SoundSpeed,Heading,Pitch,Roll,Pressure,TIS,Speed,Direction
, degrees North, degrees East, m.s-1, m.s-1,m.s-1, 1, 1, 1, Volt, m.s-1, degree, degree, degree, dbar, degree_C, m.s-1, degree
2022-08-23T00:04:03,42.805,6.029,-0.012,0.032,0.025,104.0,103.0,102.0,13.4,1505.2,329.5,-0.7,1.8,2470.98,13.29,0.034,339.4
2022-08-23T00:07:03,42.805,6.029,-0.003,0.017,-0.014,104.0,102.0,101.0,13.3,1505.2,325.1,-0.8,1.8,2470.945,13.29,0.017,350.0
2022-08-23T00:10:03,42.805,6.029,-0.028,0.009,-0.041,104.0,103.0,101.0,13.3,1505.2,318.8,-0.7,1.8,2470.941,13.29,0.029,287.8
2022-08-23T00:13:03,42.805,6.029,-0.038,-0.006,-0.038,103.0,103.0,101.0,13.3,1505.2,330.4,-0.8,1.8,2470.921,13.29,0.038,261.0
2022-08-23T00:16:03,42.805,6.029,-0.019,0.022,0.0,103.0,103.0,101.0,13.3,1505.2,322.6,-0.8,1.8,2470.94,13.29,0.029,319.2
2022-08-23T00:19:03,42.805,6.029,-0.032,0.012,-0.044,101.0,104.0,101.0,13.4,1505.2,332.2,-0.8,1.8,2470.947,13.29,0.034,290.6
2022-08-23T00:22:03,42.805,6.029,-0.049,0.01,0.001,103.0,102.0,101.0,13.3,1505.2,320.9,-0.7,1.8,2470.944,13.29,0.05,281.5
2022-08-23T00:25:03,42.805,6.029,-0.041,0.015,0.005,103.0,102.0,101.0,13.3,1505.2,318.0,-0.7,1.8,2470.93,13.29,0.043,290.1
2022-08-23T00:28:03,42.805,6.029,-0.027,0.022,0.003,103.0,102.0,101.0,13.4,1505.2,326.3,-0.8,1.8,2470.897,13.29,0.034,309.2
2022-08-23T00:31:03,42.805,6.029,-0.032,0.027,-0.031,103.0,103.0,100.0,13.3,1505.2,325.1,-0.8,1.8,2470.919,13.29,0.041,310.2
2022-08-23T00:34:03,42.805,6.029,-0.014,0.01,-0.004,102.0,104.0,101.0,13.4,1505.2,326.0,-0.8,1.8,2470.923,13.29,0.017,305.5
2022-08-23T00:37:03,42.805,6.029,-0.011,0.036,0.021,105.0,104.0,99.0,13.3,1505.2,330.6,-0.7,1.8,2470.917,13.29,0.037,343.0
2022-08-23T00:40:03,42.805,6.029,-0.013,0.015,-0.011,103.0,103.0,100.0,13.4,1505.2,322.9,-0.8,1.8,2470.914,13.29,0.019,319.1
2022-08-23T00:43:03,42.805,6.029,-0.033,0.005,-0.009,104.0,102.0,101.0,13.4,1505.2,324.9,-0.8,1.8,2470.917,13.29,0.033,278.6
2022-08-23T00:46:03,42.805,6.029,-0.031,0.005,-0.013,103.0,103.0,101.0,13.4,1505.2,322.7,-0.8,1.8,2470.906,13.29,0.031,279.2
2022-08-23T00:49:03,42.805,6.029,-0.043,0.002,0.012,103.0,101.0,102.0,13.4,1505.2,328.6,-0.8,1.8,2470.907,13.29,0.043,272.7
2022-08-23T00:52:03,42.805,6.029,-0.028,-0.005,-0.038,103.0,101.0,102.0,13.4,1505.2,323.3,-0.8,1.8,2470.904,13.29,0.028,259.9
2022-08-23T00:55:03,42.805,6.029,-0.026,0.003,-0.007,103.0,104.0,101.0,13.3,1505.2,331.4,-0.7,1.8,2470.935,13.29,0.026,276.6
2022-08-23T00:58:03,42.805,6.029,-0.017,0.0,0.003,103.0,103.0,101.0,13.3,1505.2,322.3,-0.8,1.8,2470.947,13.29,0.017,270.0
2022-08-23T01:04:03,42.805,6.029,-0.021,0.01,-0.009,105.0,104.0,102.0,13.4,1505.2,324.5,-0.8,1.8,2470.958,13.29,0.023,295.5
2022-08-23T01:07:03,42.805,6.029,-0.049,0.022,-0.004,104.0,104.0,102.0,13.4,1505.2,329.1,-0.7,1.8,2470.903,13.29,0.053,294.2
2022-08-23T01:10:03,42.805,6.029,-0.038,-0.001,0.003,102.0,102.0,100.0,13.3,1505.2,320.8,-0.8,1.8,2470.977,13.29,0.038,268.5
2022-08-23T01:13:03,42.805,6.029,-0.031,0.009,0.019,102.0,103.0,102.0,13.3,1505.2,317.3,-0.8,1.8,2470.964,13.29,0.032,286.2
2022-08-23T01:16:03,42.805,6.029,-0.031,0.008,0.0,101.0,104.0,101.0,13.4,1505.2,332.4,-0.8,1.8,2470.941,13.29,0.032,284.5
2022-08-23T01:19:03,42.805,6.029,-0.017,-0.01,-0.05,102.0,103.0,101.0,13.4,1505.2,332.9,-0.7,1.8,2470.916,13.29,0.019,239.5
2022-08-23T01:22:03,42.805,6.029,-0.032,0.004,-0.016,104.0,101.0,101.0,13.4,1505.2,327.9,-0.8,1.8,2470.889,13.29,0.032,277.1
2022-08-23T01:25:03,42.805,6.029,-0.019,0.014,-0.017,103.0,103.0,101.0,13.4,1505.2,318.7,-0.7,1.8,2470.97,13.29,0.023,306.4
2022-08-23T01:28:03,42.805,6.029,-0.041,0.017,-0.013,102.0,103.0,101.0,13.4,1505.2,327.5,-0.8,1.8,2470.918,13.29,0.044,292.5
2022-08-23T01:31:03,42.805,6.029,-0.014,-0.012,-0.006,101.0,103.0,102.0,13.4,1505.2,322.5,-0.8,1.8,2470.936,13.29,0.018,229.4
2022-08-23T01:34:03,42.805,6.029,-0.044,0.026,0.019,101.0,103.0,101.0,13.4,1505.2,321.6,-0.7,1.8,2470.927,13.29,0.051,300.6
2022-08-23T01:37:03,42.805,6.029,-0.041,0.015,-0.007,103.0,103.0,101.0,13.4,1505.2,330.1,-0.8,1.8,2470.955,13.29,0.043,290.1
2022-08-23T01:40:03,42.805,6.029,-0.024,0.006,-0.046,104.0,103.0,101.0,13.3,1505.2,323.3,-0.8,1.9,2470.916,13.29,0.024,284.0
2022-08-23T01:43:03,42.805,6.029,-0.049,0.008,-0.021,103.0,102.0,100.0,13.3,1505.2,328.9,-0.7,1.8,2470.914,13.29,0.049,279.3
2022-08-23T01:46:03,42.805,6.029,-0.046,0.025,-0.004,103.0,102.0,101.0,13.4,1505.2,328.6,-0.7,1.8,2470.896,13.29,0.052,298.5
2022-08-23T01:49:03,42.805,6.029,-0.026,0.012,-0.008,103.0,104.0,102.0,13.4,1505.2,325.5,-0.7,1.8,2470.962,13.29,0.028,294.8
2022-08-23T01:52:03,42.805,6.029,-0.024,0.016,0.024,102.0,103.0,101.0,13.3,1505.2,319.1,-0.8,1.8,2470.928,13.29,0.028,303.7
2022-08-23T01:55:03,42.805,6.029,-0.027,0.01,0.008,102.0,103.0,101.0,13.3,1505.2,322.8,-0.8,1.8,2470.966,13.29,0.028,290.3
2022-08-23T01:58:03,42.805,6.029,-0.029,0.006,-0.028,103.0,103.0,102.0,13.4,1505.2,325.1,-0.8,1.8,2470.942,13.29,0.029,281.7
2022-08-23T02:04:03,42.805,6.029,-0.006,0.013,0.014,102.0,102.0,102.0,13.4,1505.2,328.1,-0.8,1.8,2470.96,13.28,0.014,335.2
2022-08-23T02:07:03,42.805,6.029,-0.016,0.017,-0.021,102.0,102.0,102.0,13.4,1505.2,322.6,-0.7,1.8,2470.981,13.29,0.023,316.7
2022-08-23T02:10:03,42.805,6.029,-0.032,0.014,-0.003,102.0,102.0,100.0,13.4,1505.2,326.3,-0.8,1.8,2470.97,13.29,0.034,293.6
2022-08-23T02:13:03,42.805,6.029,-0.041,0.039,0.018,103.0,102.0,101.0,13.4,1505.2,326.3,-0.8,1.8,2470.983,13.29,0.056,313.6
2022-08-23T02:16:03,42.805,6.029,-0.02,0.023,0.006,102.0,103.0,101.0,13.4,1505.2,322.1,-0.8,1.8,2470.932,13.29,0.03,319.0
2022-08-23T02:19:03,42.805,6.029,-0.013,0.037,0.051,103.0,104.0,100.0,13.4,1505.2,330.1,-0.8,1.8,2470.942,13.29,0.039,340.6
2022-08-23T02:22:03,42.805,6.029,-0.029,0.042,-0.009,102.0,103.0,102.0,13.4,1505.2,332.3,-0.8,1.8,2470.906,13.29,0.051,325.4
2022-08-23T02:25:03,42.805,6.029,-0.028,-0.002,-0.007,103.0,101.0,102.0,13.4,1505.2,330.1,-0.8,1.8,2470.914,13.29,0.028,265.9
2022-08-23T02:28:03,42.805,6.029,-0.044,0.021,-0.002,101.0,103.0,101.0,13.4,1505.2,325.8,-0.7,1.8,2470.919,13.29,0.048,295.5
2022-08-23T02:31:03,42.805,6.029,-0.025,0.035,0.026,104.0,102.0,100.0,13.3,1505.2,317.2,-0.7,1.8,2470.931,13.29,0.043,324.5
2022-08-23T02:34:03,42.805,6.029,-0.031,0.003,-0.018,102.0,102.0,101.0,13.3,1505.2,327.1,-0.8,1.8,2470.914,13.29,0.031,275.5
2022-08-23T02:37:03,42.805,6.029,-0.03,0.002,-0.006,102.0,102.0,101.0,13.4,1505.2,321.5,-0.7,1.8,2470.946,13.29,0.03,273.8
2022-08-23T02:40:03,42.805,6.029,-0.037,0.025,0.017,103.0,102.0,100.0,13.3,1505.2,331.1,-0.7,1.8,2470.971,13.29,0.044,304.0
2022-08-23T02:43:03,42.805,6.029,-0.021,0.0,0.008,103.0,103.0,101.0,13.4,1505.2,319.1,-0.8,1.9,2470.947,13.29,0.021,270.0
2022-08-23T02:46:03,42.805,6.029,-0.054,0.011,-0.005,102.0,103.0,101.0,13.4,1505.2,321.5,-0.7,1.8,2470.925,13.29,0.055,281.5
2022-08-23T02:49:03,42.805,6.029,-0.038,0.019,-0.008,104.0,104.0,101.0,13.4,1505.2,325.0,-0.8,1.8,2470.934,13.29,0.042,296.6
2022-08-23T02:52:03,42.805,6.029,-0.028,0.013,-0.028,103.0,103.0,101.0,13.3,1505.2,327.4,-0.8,1.8,2470.926,13.29,0.03,294.9
2022-08-23T02:55:03,42.805,6.029,-0.01,0.003,0.031,102.0,102.0,100.0,13.3,1505.2,319.4,-0.7,1.8,2470.96,13.29,0.01,286.7
2022-08-23T02:58:03,42.805,6.029,-0.027,0.009,0.031,102.0,104.0,101.0,13.4,1505.2,320.1,-0.7,1.8,2471.002,13.29,0.028,288.4
2022-08-23T03:04:03,42.805,6.029,-0.03,0.01,-0.003,103.0,103.0,101.0,13.3,1505.2,324.7,-0.8,1.8,2470.983,13.29,0.031,288.4
2022-08-23T03:07:03,42.805,6.029,-0.028,-0.003,-0.007,103.0,102.0,101.0,13.4,1505.2,328.8,-0.8,1.8,2470.989,13.29,0.028,263.9
2022-08-23T03:10:03,42.805,6.029,-0.025,-0.007,-0.026,104.0,103.0,100.0,13.4,1505.2,330.8,-0.8,1.8,2470.968,13.29,0.025,254.4
2022-08-23T03:13:03,42.805,6.029,-0.002,0.019,-0.003,104.0,104.0,101.0,13.3,1505.2,321.4,-0.8,1.8,2470.986,13.29,0.019,354.0
2022-08-23T03:16:03,42.805,6.029,-0.01,-0.004,0.024,102.0,102.0,101.0,13.3,1505.2,320.5,-0.8,1.8,2470.975,13.29,0.01,248.2
2022-08-23T03:19:03,42.805,6.029,-0.022,0.033,0.005,102.0,102.0,101.0,13.4,1505.2,323.8,-0.8,1.8,2470.95,13.29,0.039,326.3
2022-08-23T03:22:03,42.805,6.029,-0.033,0.022,0.003,101.0,103.0,102.0,13.4,1505.2,319.9,-0.8,1.8,2470.949,13.29,0.039,303.7
2022-08-23T03:25:03,42.805,6.029,0.0,0.013,0.0,103.0,101.0,101.0,13.3,1505.2,321.2,-0.8,1.8,2470.953,13.29,0.013,0.0
2022-08-23T03:28:03,42.805,6.029,-0.037,0.04,-0.013,103.0,102.0,100.0,13.3,1505.2,323.0,-0.7,1.8,2470.976,13.29,0.054,317.2
2022-08-23T03:31:03,42.805,6.029,-0.013,-0.004,0.037,100.0,103.0,100.0,13.3,1505.2,323.0,-0.7,1.8,2470.968,13.29,0.013,252.9
2022-08-23T03:34:03,42.805,6.029,-0.026,0.003,-0.028,103.0,101.0,100.0,13.4,1505.2,327.8,-0.7,1.9,2470.957,13.29,0.026,276.6
2022-08-23T03:37:03,42.805,6.029,-0.022,0.001,-0.012,102.0,102.0,101.0,13.4,1505.2,322.1,-0.8,1.8,2470.966,13.29,0.022,272.6
2022-08-23T03:40:03,42.805,6.029,-0.015,0.019,-0.004,102.0,102.0,101.0,13.3,1505.2,324.8,-0.8,1.8,2470.933,13.29,0.024,321.7
2022-08-23T03:43:03,42.805,6.029,-0.044,0.015,-0.036,102.0,102.0,100.0,13.3,1505.2,328.3,-0.8,1.8,2470.947,13.29,0.046,288.8
2022-08-23T03:46:03,42.805,6.029,-0.005,0.017,0.006,103.0,103.0,100.0,13.3,1505.2,321.2,-0.8,1.8,2470.965,13.29,0.017,343.6
2022-08-23T03:49:03,42.805,6.029,-0.018,0.022,0.0,104.0,101.0,101.0,13.4,1505.2,324.4,-0.8,1.8,2470.958,13.29,0.028,320.7
2022-08-23T03:52:03,42.805,6.029,-0.047,0.018,0.01,103.0,103.0,101.0,13.3,1505.2,330.8,-0.7,1.8,2470.984,13.29,0.05,291.0
2022-08-23T03:55:03,42.805,6.029,-0.022,0.03,-0.007,103.0,103.0,100.0,13.4,1505.2,331.5,-0.7,1.8,2470.976,13.29,0.037,323.7
2022-08-23T03:58:03,42.805,6.029,-0.02,0.005,-0.014,103.0,103.0,102.0,13.4,1505.2,332.8,-0.8,1.8,2470.953,13.29,0.02,284.0
2022-08-23T04:04:03,42.805,6.029,-0.027,0.017,-0.025,103.0,104.0,100.0,13.4,1505.2,331.7,-0.8,1.9,2471.033,13.29,0.031,302.2
2022-08-23T04:07:03,42.805,6.029,-0.026,0.02,-0.016,104.0,103.0,101.0,13.4,1505.2,327.9,-0.8,1.8,2470.987,13.29,0.032,307.6
2022-08-23T04:10:03,42.805,6.029,-0.043,0.036,0.031,103.0,102.0,102.0,13.4,1505.2,322.4,-0.8,1.8,2471.001,13.29,0.056,309.9
2022-08-23T04:13:03,42.805,6.029,-0.004,0.016,-0.018,103.0,103.0,101.0,13.4,1505.2,320.9,-0.8,1.8,2471.0,13.29,0.016,346.0
2022-08-23T04:16:03,42.805,6.029,-0.026,0.025,0.031,104.0,102.0,101.0,13.4,1505.2,319.7,-0.7,1.8,2470.988,13.29,0.036,313.9
2022-08-23T04:19:03,42.805,6.029,-0.022,0.018,-0.009,102.0,103.0,101.0,13.4,1505.2,332.2,-0.8,1.9,2470.991,13.29,0.028,309.3
2022-08-23T04:22:03,42.805,6.029,-0.038,0.025,-0.011,104.0,103.0,102.0,13.4,1505.2,330.6,-0.7,1.8,2470.966,13.29,0.045,303.3
2022-08-23T04:25:03,42.805,6.029,-0.027,0.003,-0.005,103.0,103.0,101.0,13.4,1505.2,326.7,-0.8,1.8,2470.965,13.29,0.027,276.3
2022-08-23T04:28:03,42.805,6.029,-0.005,0.015,0.016,102.0,103.0,100.0,13.4,1505.2,327.1,-0.8,1.8,2470.947,13.29,0.015,341.6
2022-08-23T04:31:03,42.805,6.029,-0.023,0.011,-0.022,104.0,103.0,102.0,13.3,1505.2,332.0,-0.7,1.8,2470.951,13.29,0.025,295.6
2022-08-23T04:34:03,42.805,6.029,-0.011,0.019,-0.028,104.0,103.0,102.0,13.4,1505.2,326.8,-0.8,1.8,2470.968,13.29,0.021,329.9
2022-08-23T04:37:03,42.805,6.029,-0.015,0.016,0.007,103.0,103.0,101.0,13.4,1505.2,327.6,-0.8,1.8,2470.977,13.29,0.021,316.9
2022-08-23T04:40:03,42.805,6.029,-0.034,0.022,0.008,103.0,103.0,101.0,13.4,1505.2,323.5,-0.8,1.8,2470.984,13.29,0.04,302.9
2022-08-23T04:43:03,42.805,6.029,-0.027,0.022,0.001,104.0,103.0,100.0,13.4,1505.2,322.4,-0.8,1.8,2470.992,13.29,0.034,309.2
2022-08-23T04:46:03,42.805,6.029,-0.028,0.015,0.02,102.0,104.0,101.0,13.4,1505.2,322.4,-0.8,1.8,2470.948,13.29,0.031,298.2
2022-08-23T04:49:03,42.805,6.029,-0.027,0.02,-0.033,102.0,102.0,100.0,13.4,1505.2,326.1,-0.8,1.8,2470.963,13.29,0.033,306.5
2022-08-23T04:52:03,42.805,6.029,-0.021,0.012,-0.006,103.0,102.0,102.0,13.3,1505.2,320.8,-0.8,1.8,2471.006,13.29,0.024,299.7
2022-08-23T04:55:03,42.805,6.029,-0.021,0.041,0.016,102.0,103.0,101.0,13.4,1505.2,326.6,-0.7,1.8,2470.96,13.29,0.046,332.9
2022-08-23T04:58:03,42.805,6.029,-0.015,0.009,0.003,105.0,102.0,102.0,13.3,1505.2,322.7,-0.8,1.8,2470.993,13.29,0.017,301.0
2022-08-23T05:04:03,42.805,6.029,-0.035,0.03,0.014,102.0,103.0,100.0,13.4,1505.2,325.6,-0.8,1.8,2470.981,13.29,0.046,310.6
2022-08-23T05:07:03,42.805,6.029,0.008,-0.003,-0.011,102.0,102.0,101.0,13.4,1505.2,322.6,-0.8,1.8,2471.01,13.29,0.008,110.6
2022-08-23T05:10:03,42.805,6.029,-0.004,0.02,-0.036,101.0,103.0,101.0,13.4,1505.2,328.5,-0.7,1.8,2470.975,13.29,0.02,348.7
2022-08-23T05:13:03,42.805,6.029,-0.044,0.013,-0.001,103.0,103.0,100.0,13.4,1505.2,318.7,-0.8,1.8,2470.959,13.29,0.045,286.5
2022-08-23T05:16:03,42.805,6.029,-0.023,0.009,-0.02,102.0,102.0,101.0,13.4,1505.2,317.2,-0.8,1.8,2470.98,13.29,0.024,291.4
2022-08-23T05:19:03,42.805,6.029,0.006,0.01,-0.02,103.0,101.0,101.0,13.3,1505.2,331.4,-0.8,1.8,2470.986,13.29,0.011,31.0
2022-08-23T05:22:03,42.805,6.029,-0.048,0.017,-0.06,103.0,102.0,101.0,13.3,1505.2,324.0,-0.7,1.8,2470.98,13.29,0.05,289.5
2022-08-23T05:25:03,42.805,6.029,-0.021,0.031,0.01,102.0,102.0,101.0,13.4,1505.2,329.7,-0.8,1.8,2470.968,13.29,0.037,325.9
2022-08-23T05:28:03,42.805,6.029,-0.019,0.031,-0.006,102.0,102.0,101.0,13.4,1505.2,326.0,-0.8,1.8,2470.926,13.29,0.036,328.5
2022-08-23T05:31:03,42.805,6.029,-0.035,0.012,0.023,102.0,102.0,101.0,13.4,1505.2,317.2,-0.8,1.8,2470.965,13.29,0.037,288.9
2022-08-23T05:34:03,42.805,6.029,-0.032,0.017,0.02,102.0,103.0,100.0,13.4,1505.2,325.9,-0.7,1.8,2470.97,13.29,0.036,298.0
2022-08-23T05:37:03,42.805,6.029,0.0,0.01,0.031,101.0,102.0,101.0,13.4,1505.2,326.3,-0.7,1.8,2470.982,13.29,0.01,0.0
2022-08-23T05:40:03,42.805,6.029,-0.031,0.004,-0.022,102.0,103.0,101.0,13.4,1505.2,326.6,-0.7,1.8,2470.977,13.29,0.031,277.3
2022-08-23T05:43:03,42.805,6.029,-0.004,0.003,-0.018,103.0,101.0,100.0,13.4,1505.2,332.0,-0.7,1.8,2470.969,13.29,0.005,306.9
2022-08-23T05:46:03,42.805,6.029,-0.012,0.012,0.0,102.0,102.0,100.0,13.4,1505.2,332.0,-0.8,1.8,2470.97,13.29,0.016,315.0
2022-08-23T05:49:03,42.805,6.029,-0.021,0.014,-0.015,102.0,102.0,101.0,13.4,1505.2,322.4,-0.8,1.8,2470.981,13.29,0.025,303.7
2022-08-23T05:52:03,42.805,6.029,-0.037,-0.001,-0.018,102.0,102.0,101.0,13.4,1505.2,326.9,-0.7,1.8,2470.949,13.29,0.037,268.5
2022-08-23T05:55:03,42.805,6.029,-0.034,0.016,-0.006,101.0,102.0,101.0,13.3,1505.2,325.5,-0.8,1.9,2470.966,13.29,0.037,295.2
2022-08-23T05:58:03,42.805,6.029,-0.009,0.014,-0.002,102.0,102.0,101.0,13.3,1505.2,322.9,-0.7,1.8,2470.998,13.29,0.016,327.3
2022-08-23T06:04:03,42.805,6.029,-0.014,0.021,0.018,102.0,103.0,101.0,13.4,1505.2,325.6,-0.8,1.8,2470.988,13.29,0.025,326.3
2022-08-23T06:07:03,42.805,6.029,-0.006,0.026,-0.014,103.0,104.0,100.0,13.4,1505.2,319.5,-0.8,1.8,2470.992,13.29,0.026,347.0
2022-08-23T06:10:03,42.805,6.029,-0.025,-0.004,-0.006,102.0,103.0,102.0,13.3,1505.2,324.1,-0.7,1.8,2470.975,13.29,0.025,260.9
2022-08-23T06:13:03,42.805,6.029,-0.023,0.013,-0.015,102.0,103.0,100.0,13.4,1505.2,326.8,-0.8,1.8,2471.021,13.29,0.026,299.5
2022-08-23T06:16:03,42.805,6.029,-0.009,-0.003,0.006,101.0,103.0,101.0,13.3,1505.2,328.5,-0.8,1.8,2470.963,13.29,0.009,251.6
2022-08-23T06:19:03,42.805,6.029,0.009,-0.003,-0.038,103.0,101.0,101.0,13.4,1505.2,321.8,-0.8,1.8,2470.947,13.29,0.009,108.4
2022-08-23T06:22:03,42.805,6.029,-0.012,0.017,0.02,106.0,102.0,101.0,13.4,1505.2,321.9,-0.7,1.8,2470.926,13.29,0.02,324.8
2022-08-23T06:25:03,42.805,6.029,-0.023,0.004,-0.015,102.0,102.0,101.0,13.4,1505.2,332.0,-0.8,1.8,2470.934,13.29,0.023,279.9
2022-08-23T06:28:03,42.805,6.029,-0.017,0.012,-0.005,104.0,102.0,101.0,13.3,1505.2,328.7,-0.7,1.8,2471.001,13.29,0.02,305.2
2022-08-23T06:31:03,42.805,6.029,-0.034,0.013,-0.027,102.0,103.0,101.0,13.4,1505.2,318.8,-0.7,1.9,2470.983,13.29,0.036,290.9
2022-08-23T06:34:03,42.805,6.029,-0.026,0.007,-0.015,102.0,103.0,101.0,13.4,1505.2,332.2,-0.8,1.8,2470.959,13.29,0.026,285.1
2022-08-23T06:37:03,42.805,6.029,-0.032,0.02,0.003,104.0,102.0,99.0,13.3,1505.2,328.7,-0.7,1.8,2470.934,13.29,0.037,302.0
2022-08-23T06:40:03,42.805,6.029,0.006,0.031,0.022,103.0,102.0,101.0,13.3,1505.2,330.5,-0.8,1.8,2470.943,13.29,0.031,11.0
2022-08-23T06:43:03,42.805,6.029,-0.017,0.025,-0.032,102.0,102.0,100.0,13.4,1505.2,326.8,-0.8,1.8,2470.923,13.29,0.03,325.8
2022-08-23T06:46:03,42.805,6.029,-0.021,0.009,0.001,103.0,103.0,100.0,13.4,1505.2,321.8,-0.8,1.8,2470.949,13.29,0.022,293.2
2022-08-23T06:49:03,42.805,6.029,-0.019,0.009,0.01,102.0,102.0,101.0,13.4,1505.2,323.9,-0.8,1.8,2470.949,13.29,0.021,295.3
2022-08-23T06:52:03,42.805,6.029,-0.01,0.0,-0.003,101.0,102.0,101.0,13.4,1505.2,327.2,-0.7,1.8,2470.956,13.29,0.01,270.0
2022-08-23T06:55:03,42.805,6.029,-0.036,0.005,-0.023,102.0,102.0,101.0,13.4,1505.2,320.7,-0.8,1.8,2470.921,13.29,0.036,277.9
2022-08-23T06:58:03,42.805,6.029,-0.034,-0.008,-0.036,102.0,103.0,101.0,13.4,1505.2,327.1,-0.7,1.8,2470.972,13.29,0.034,256.8
2022-08-23T07:04:03,42.805,6.029,-0.032,0.02,-0.029,101.0,103.0,100.0,13.4,1505.2,318.7,-0.8,1.8,2470.965,13.29,0.037,302.0
2022-08-23T07:07:03,42.805,6.029,-0.01,-0.006,-0.013,103.0,102.0,100.0,13.4,1505.2,333.9,-0.7,1.9,2470.966,13.29,0.011,239.0
2022-08-23T07:10:03,42.805,6.029,-0.012,0.027,-0.015,103.0,103.0,101.0,13.4,1505.2,329.3,-0.8,1.8,2470.964,13.29,0.029,336.0
2022-08-23T07:13:03,42.805,6.029,-0.03,0.016,-0.018,102.0,103.0,101.0,13.3,1505.2,321.7,-0.8,1.8,2470.936,13.29,0.034,298.1
2022-08-23T07:16:03,42.805,6.029,-0.003,-0.01,-0.002,103.0,102.0,100.0,13.4,1505.2,333.1,-0.8,1.8,2470.944,13.29,0.01,196.7
2022-08-23T07:19:03,42.805,6.029,0.004,0.009,-0.032,101.0,103.0,101.0,13.4,1505.2,320.8,-0.8,1.8,2470.974,13.29,0.009,24.0
2022-08-23T07:22:03,42.805,6.029,-0.024,0.017,-0.018,103.0,103.0,100.0,13.3,1505.2,326.1,-0.8,1.8,2470.939,13.29,0.029,305.3
2022-08-23T07:25:03,42.805,6.029,-0.025,0.021,0.02,101.0,102.0,101.0,13.4,1505.2,322.3,-0.8,1.8,2470.922,13.29,0.032,310.0
2022-08-23T07:28:03,42.805,6.029,-0.016,-0.013,-0.016,102.0,102.0,101.0,13.4,1505.2,326.3,-0.7,1.8,2470.923,13.29,0.02,230.9
2022-08-23T07:31:03,42.805,6.029,-0.026,0.012,-0.041,102.0,101.0,100.0,13.4,1505.2,326.8,-0.8,1.8,2470.943,13.29,0.028,294.8
2022-08-23T07:34:03,42.805,6.029,-0.024,0.018,-0.005,102.0,103.0,101.0,13.4,1505.2,333.1,-0.8,1.8,2470.912,13.29,0.03,306.9
2022-08-23T07:37:03,42.805,6.029,-0.013,0.021,0.011,104.0,102.0,100.0,13.3,1505.2,322.8,-0.7,1.8,2470.923,13.29,0.024,328.2
2022-08-23T07:40:03,42.805,6.029,-0.028,0.008,-0.027,101.0,102.0,101.0,13.3,1505.2,329.0,-0.8,1.8,2470.924,13.29,0.029,285.9
2022-08-23T07:43:03,42.805,6.029,-0.001,0.0,-0.014,102.0,101.0,101.0,13.4,1505.2,332.2,-0.8,1.9,2470.915,13.29,0.001,270.0
2022-08-23T07:46:03,42.805,6.029,-0.016,0.0,-0.04,100.0,101.0,101.0,13.4,1505.2,319.8,-0.7,1.8,2470.925,13.29,0.016,270.0
2022-08-23T07:49:03,42.805,6.029,-0.001,0.003,-0.018,102.0,103.0,100.0,13.4,1505.2,322.4,-0.8,1.8,2470.923,13.29,0.003,341.6
2022-08-23T07:52:03,42.805,6.029,-0.013,0.007,-0.033,100.0,103.0,101.0,13.3,1505.2,321.3,-0.8,1.8,2470.922,13.29,0.014,298.3
2022-08-23T07:55:03,42.805,6.029,-0.027,0.023,0.027,102.0,101.0,101.0,13.4,1505.2,323.8,-0.8,1.8,2470.935,13.29,0.035,310.4
2022-08-23T07:58:03,42.805,6.029,-0.012,-0.01,-0.037,106.0,100.0,102.0,13.4,1505.2,330.3,-0.8,1.8,2470.899,13.29,0.015,230.2
2022-08-23T08:04:03,42.805,6.029,0.017,-0.023,-0.034,104.0,103.0,101.0,13.3,1505.2,322.8,-0.7,1.8,2470.954,13.29,0.028,143.5
2022-08-23T08:07:03,42.805,6.029,-0.009,-0.008,-0.011,102.0,102.0,100.0,13.4,1505.2,327.1,-0.8,1.8,2470.943,13.29,0.012,228.4
2022-08-23T08:10:03,42.805,6.029,-0.016,-0.002,-0.016,101.0,104.0,101.0,13.4,1505.2,332.0,-0.7,1.8,2470.93,13.29,0.016,262.9
2022-08-23T08:13:03,42.805,6.029,-0.011,-0.005,0.003,102.0,103.0,100.0,13.4,1505.2,322.6,-0.8,1.8,2470.908,13.29,0.012,245.6
2022-08-23T08:16:03,42.805,6.029,0.007,0.0,-0.01,102.0,101.0,102.0,13.4,1505.2,328.4,-0.8,1.8,2470.929,13.29,0.007,90.0
2022-08-23T08:19:03,42.805,6.029,-0.004,0.01,-0.018,103.0,104.0,101.0,13.4,1505.2,333.1,-0.8,1.8,2470.947,13.29,0.01,338.2
2022-08-23T08:22:03,42.805,6.029,0.012,0.02,0.003,101.0,103.0,100.0,13.3,1505.2,322.6,-0.8,1.8,2470.918,13.29,0.023,31.0
2022-08-23T08:25:03,42.805,6.029,-0.011,0.025,0.001,102.0,102.0,101.0,13.3,1505.2,322.5,-0.8,1.8,2470.901,13.29,0.027,336.3
2022-08-23T08:28:03,42.805,6.029,0.003,0.012,-0.007,102.0,102.0,101.0,13.4,1505.2,326.1,-0.7,1.8,2470.926,13.29,0.012,14.0
2022-08-23T08:31:03,42.805,6.029,-0.038,0.036,0.027,102.0,102.0,101.0,13.3,1505.2,327.3,-0.7,1.8,2470.94,13.29,0.052,313.5
2022-08-23T08:34:03,42.805,6.029,-0.011,0.002,-0.006,102.0,103.0,101.0,13.4,1505.2,327.1,-0.8,1.8,2470.896,13.29,0.011,280.3
2022-08-23T08:37:03,42.805,6.029,0.0,0.01,-0.008,101.0,102.0,100.0,13.3,1505.2,328.3,-0.7,1.8,2470.926,13.29,0.01,0.0
2022-08-23T08:40:03,42.805,6.029,-0.014,0.011,-0.002,100.0,102.0,102.0,13.3,1505.2,331.4,-0.7,1.8,2470.896,13.29,0.017,308.2
2022-08-23T08:43:03,42.805,6.029,-0.034,-0.005,0.012,102.0,101.0,100.0,13.3,1505.2,327.6,-0.8,1.8,2470.917,13.29,0.034,261.6
2022-08-23T08:46:03,42.805,6.029,-0.017,-0.007,-0.016,101.0,102.0,101.0,13.3,1505.2,333.1,-0.8,1.8,2470.915,13.29,0.018,247.6
2022-08-23T08:49:03,42.805,6.029,-0.005,0.009,-0.01,100.0,103.0,101.0,13.4,1505.2,330.1,-0.7,1.8,2470.927,13.29,0.01,330.9
2022-08-23T08:52:03,42.805,6.029,-0.023,-0.009,-0.028,102.0,100.0,101.0,13.4,1505.2,321.2,-0.8,1.8,2470.851,13.29,0.024,248.6
2022-08-23T08:55:03,42.805,6.029,0.004,0.019,0.013,102.0,103.0,99.0,13.4,1505.2,327.9,-0.8,1.8,2470.917,13.29,0.019,11.9
2022-08-23T08:58:03,42.805,6.029,-0.012,0.008,-0.011,102.0,103.0,101.0,13.4,1505.2,324.0,-0.8,1.8,2470.884,13.29,0.014,303.7
2022-08-23T09:04:03,42.805,6.029,-0.02,0.006,-0.011,102.0,103.0,101.0,13.3,1505.2,329.6,-0.8,1.8,2470.922,13.29,0.02,286.7
2022-08-23T09:07:03,42.805,6.029,-0.01,0.012,-0.007,102.0,103.0,101.0,13.4,1505.2,328.9,-0.8,1.8,2470.913,13.29,0.015,320.2
2022-08-23T09:10:03,42.805,6.029,0.0,0.008,0.0,103.0,102.0,101.0,13.3,1505.2,327.1,-0.8,1.8,2470.906,13.29,0.008,0.0
2022-08-23T09:13:03,42.805,6.029,-0.03,0.0,-0.016,103.0,102.0,101.0,13.4,1505.2,322.1,-0.8,1.8,2470.925,13.29,0.03,270.0
2022-08-23T09:16:03,42.805,6.029,-0.006,0.018,0.004,102.0,103.0,100.0,13.4,1505.2,327.6,-0.7,1.8,2470.934,13.29,0.018,341.6
2022-08-23T09:19:03,42.805,6.029,-0.029,0.015,-0.005,101.0,101.0,101.0,13.3,1505.2,330.8,-0.8,1.8,2470.905,13.29,0.032,297.4
2022-08-23T09:22:03,42.805,6.029,-0.001,0.009,0.014,102.0,102.0,101.0,13.4,1505.2,329.6,-0.7,1.8,2470.897,13.29,0.009,353.7
2022-08-23T09:25:03,42.805,6.029,-0.012,0.009,-0.018,103.0,101.0,101.0,13.4,1505.2,329.7,-0.7,1.8,2470.919,13.29,0.015,306.9
2022-08-23T09:28:03,42.805,6.029,-0.029,0.012,0.021,101.0,102.0,100.0,13.4,1505.2,318.0,-0.7,1.8,2470.925,13.29,0.031,292.5
2022-08-23T09:31:03,42.805,6.029,0.002,0.007,0.007,104.0,102.0,101.0,13.4,1505.2,323.0,-0.7,1.8,2470.921,13.29,0.007,15.9
2022-08-23T09:34:03,42.805,6.029,-0.004,-0.008,-0.037,102.0,102.0,101.0,13.3,1505.2,332.8,-0.7,1.8,2470.914,13.29,0.008,206.6
2022-08-23T09:37:03,42.805,6.029,-0.017,0.013,-0.005,102.0,102.0,100.0,13.3,1505.2,330.4,-0.7,1.8,2470.909,13.29,0.021,307.4
2022-08-23T09:40:03,42.805,6.029,-0.014,0.007,-0.03,104.0,102.0,101.0,13.4,1505.2,332.8,-0.8,1.8,2470.853,13.29,0.015,296.6
2022-08-23T09:43:03,42.805,6.029,-0.005,-0.004,-0.05,103.0,101.0,101.0,13.4,1505.2,321.6,-0.8,1.8,2470.861,13.29,0.006,231.3
2022-08-23T09:46:03,42.805,6.029,-0.009,0.024,0.007,102.0,103.0,101.0,13.4,1505.2,330.0,-0.8,1.8,2470.872,13.29,0.025,339.4
2022-08-23T09:49:03,42.805,6.029,-0.03,0.031,0.012,102.0,102.0,100.0,13.4,1505.2,333.1,-0.7,1.8,2470.892,13.29,0.043,315.9
2022-08-23T09:52:03,42.805,6.029,-0.009,-0.006,-0.008,103.0,102.0,100.0,13.4,1505.2,332.0,-0.7,1.8,2470.848,13.29,0.01,236.3
2022-08-23T09:55:03,42.805,6.029,-0.001,0.008,-0.002,104.0,102.0,100.0,13.4,1505.2,333.1,-0.8,1.8,2470.887,13.29,0.008,352.9